CUTE-1.7+APD II (CO-65)

Last updated on Mon Sep 21 2026 00:03:14 GMT+0000 (Coordinated Universal Time)

1 32785U 08021C 26263.61626137 .00003184 00000+0 19883-3 0 9994 2 32785 97.8388 247.1294 0010376 68.5405 291.6930 15.10204823999591
UTC large
Height (km)
Speed (km/s)
/
Latitude / Longitude
Inclination (degrees)
Orbital Period (minutes)
Azimuth
Elevation
Range (km)
Doppler Factor

Next 0 passes for location: London (51.5072 / 0.1276)

No passes found over London.
CUTE-1.7+APD II (CO-65)